Weather History for Boise, ID

Change the Weather History Date:

Sunday, February 10, 2013

  Actual Average Record
Temperature  
Mean Temperature 36 °F 35 °F  
Max Temperature 45 °F 43 °F 64 °F (1951)
Min Temperature 26 °F 27 °F -7 °F (1933)
Degree Days  
Heating Degree Days 29 30  
Month to date heating degree days 305 307  
Since 1 July heating degree days 3582 3668  
Cooling Degree Days 0 0  
Month to date cooling degree days 0 0  
Year to date cooling degree days 0 0  
Moisture  
Dew Point 21 °F    
Average Humidity 56    
Maximum Humidity 75    
Minimum Humidity 36    
Precipitation  
Precipitation 0.00 in 0.03 in 0.34 in (1930)
Month to date precipitation 0.06 0.35  
Year to date precipitation 1.27 1.59  
Snow  
Snow 0.00 in 0.10 in 1.50 in (1903)
Month to date snowfall 1.8 1.2  
Since 1 July snowfall 13.6 16.0  
Snow Depth 0.00 in    
Sea Level Pressure  
Sea Level Pressure 30.10 in    
Wind  
Wind Speed 12 mph (NW)    
Max Wind Speed 24 mph    
Max Gust Speed 29 mph    
Visibility 10 miles    
Events      
T = Trace of Precipitation, MM = Missing Value Source: NWS Daily Summary

Daily Weather History Graph

Daily Weather History Graph

Search for Another Location

Airport:

Trip Planner

Search our weather history database for the weather conditions in past years. The results will help you decide how hot, cold, wet, or windy it might be!

Date:

Astronomy

Feb. 10, 2013 Rise Set
Actual Time 7:49 AM MST 6:09 PM MST
Civil Twilight 7:20 AM MST 6:38 PM MST
Nautical Twilight 6:46 AM MST 7:12 PM MST
Astronomical Twilight 6:13 AM MST 7:45 PM MST
Moon 7:39 AM MST (2/10) 7:08 PM MST (2/10)
Length of Visible Light 11h 18m
Length of Day
10h 19m
New Moon, 0% of the Moon is Illuminated
Feb 10
New Moon
Feb 17
First Quarter
Feb 25
Full
Mar 4
Last Quarter
Mar 11
New

Hourly Weather History & Observations

Time (MST) Temp. Windchill Dew Point Humidity Pressure Visibility Wind Dir Wind Speed Gust Speed Precip Events Conditions
12:53 AM 32.0 °F 22.1 °F 25.0 °F 75% 30.00 in 10.0 mi WNW 13.8 mph - N/A   Clear
1:53 AM 32.0 °F 21.6 °F 24.1 °F 73% 30.00 in 10.0 mi NW 15.0 mph - N/A   Clear
2:53 AM 32.0 °F 21.2 °F 23.0 °F 69% 30.01 in 10.0 mi NNW 16.1 mph - N/A   Clear
3:53 AM 30.0 °F 21.1 °F 21.9 °F 72% 30.03 in 10.0 mi NW 10.4 mph - N/A   Clear
4:53 AM 30.0 °F 21.7 °F 21.0 °F 69% 30.04 in 10.0 mi WNW 9.2 mph - N/A   Clear
5:53 AM 28.9 °F 23.9 °F 21.0 °F 72% 30.07 in 10.0 mi WNW 4.6 mph - N/A   Clear
6:53 AM 28.9 °F 23.9 °F 19.0 °F 67% 30.08 in 10.0 mi WNW 4.6 mph - N/A   Clear
7:53 AM 27.0 °F 19.5 °F 19.9 °F 75% 30.11 in 10.0 mi WNW 6.9 mph - N/A   Clear
8:53 AM 30.9 °F 23.5 °F 21.0 °F 67% 30.12 in 10.0 mi NW 8.1 mph - N/A   Clear
9:53 AM 35.1 °F 27.4 °F 19.9 °F 54% 30.13 in 10.0 mi NW 10.4 mph - N/A   Clear
10:53 AM 39.0 °F 32.8 °F 18.0 °F 43% 30.13 in 10.0 mi WNW 9.2 mph - N/A   Clear
11:53 AM 41.0 °F 33.1 °F 17.1 °F 38% 30.13 in 10.0 mi NW 15.0 mph - N/A   Clear
12:53 PM 43.0 °F 35.4 °F 18.0 °F 37% 30.11 in 10.0 mi NNW 16.1 mph 23.0 mph N/A   Clear
1:53 PM 44.1 °F 36.2 °F 19.0 °F 37% 30.09 in 10.0 mi NW 18.4 mph 28.8 mph N/A   Clear
2:53 PM 43.0 °F 35.1 °F 21.0 °F 42% 30.09 in 10.0 mi WNW 17.3 mph 26.5 mph N/A   Clear
3:53 PM 44.1 °F 35.4 °F 19.9 °F 38% 30.09 in 10.0 mi NW 21.9 mph 27.6 mph N/A   Clear
4:53 PM 43.0 °F 34.0 °F 19.0 °F 38% 30.10 in 10.0 mi NW 21.9 mph - N/A   Partly Cloudy
5:53 PM 39.9 °F 31.8 °F 19.9 °F 45% 30.11 in 10.0 mi NNW 15.0 mph 26.5 mph N/A   Clear
6:53 PM 37.0 °F 29.8 °F 24.1 °F 59% 30.13 in 10.0 mi NNW 10.4 mph - N/A   Clear
7:53 PM 36.0 °F 27.5 °F 21.9 °F 57% 30.14 in 10.0 mi NW 12.7 mph - N/A   Clear
8:53 PM 35.1 °F 26.9 °F 21.0 °F 57% 30.14 in 10.0 mi NNW 11.5 mph - N/A   Clear
9:53 PM 33.1 °F - 19.9 °F 59% 30.15 in 10.0 mi Calm Calm - N/A   Clear
10:53 PM 30.0 °F 25.2 °F 21.9 °F 72% 30.16 in 10.0 mi NNW 4.6 mph - N/A   Clear
11:53 PM 27.0 °F 23.0 °F 19.9 °F 75% 30.17 in 10.0 mi SW 3.5 mph - N/A   Clear